Tracking 19644 objects as of 24-Apr-2019
HD Live streaming from Space Station
objects crossing your sky now

METEOR 2-5 DEB

Track METEOR 2-5 DEB now!
10-day predictions


NORAD ID: 38274
Int'l Code: 1979-095BU
Perigee: 822.4 km
Apogee: 853.2 km
Inclination: 81.2 °
Period: 101.5 minutes
Semi major axis: 7208 km
RCS: 0.003 m2 (small)
Launch date: October 31, 1979
Source: Commonwealth of Independent States (former USSR) (CIS)
Launch site: PLESETSK MISSILE AND SPACE COMPLEX (PKMTR)

Note: This is SATELLITE DEBRIS
aabbcc
Your satellite tracking list
Your tracking list is empty




NASA's NSSDC Master Catalog

Two Line Element Set (TLE):
1 38274U 79095BU  19111.96991502  .00000825  00000-0  39301-3 0  9992
2 38274  81.2018 215.9072 0021366 345.1453  14.9092 14.18426843392476
Source of the keplerian elements: AFSPC